Back to catalog

STARLINK-11732

AliveCommunicationsVLEO
NORAD 64370·PAYLOAD·🇺🇸 United States

Launched Jun 13, 2025 from Cape Canaveral Space Force Station

Loading…

Next Passes (next 24 hours)

TLE

FreshSource: CelesTrak SupGP

Epoch: Sep 14, 2026, 21:00 UTC

1 64370C 25127A   26257.87548611  .00086523  00000+0  67184-3 0  2578
2 64370  43.0007  24.2477 0001718 276.3009 159.6344 15.70802025    19

Track STARLINK-11732 in real time with AllMySat

Download on the App Store